* Astronomy

Members Login
Username 
 
Password 
    Remember Me  
Post Info TOPIC: KOSMOS 2388 satellite re-entry


L

Posts: 131433
Date:
RE: KOSMOS 2388 satellite re-entry
Permalink  
 


Update
The KOSMOS 2388 satellite re-entered the Earths atmosphere on the 14th September, 2011 @ 07:17 GMT 1 minute.

Inclination: 64.85
Revolution Number: 7103
Predicted Location: 62S, 140E



__________________


L

Posts: 131433
Date:
Permalink  
 

Update
The KOSMOS 2388 satellite is predicted to re-enter the Earths atmosphere on the 13th September, 2011 @ 19:54 GMT 7 hours.

KOSMOS 2388
1 27409U 02017A   11256.54241365  .99999999 -10791-4  13273-2 0  1183
2 27409 064.8448 001.2677 1143795 223.6963 289.2794 13.92300508 70911

Period: 104.67 minutes
Inclination: 64.85
Apogee: 1871 km
Perigee: 87 km
Revolution Number: 7095
Predicted Location: 63.8S, 323.6E



__________________


L

Posts: 131433
Date:
Permalink  
 

Ground track

KOSMOS2388B.gif
Expand (28kb, 857 x 564)

KOSMOS 2388
1 27409U 02017A   11256.32078733  .99999999 -15404-4  17079-2 0  1146
2 27409 064.8458 001.8471 1354956 223.2835 278.3867 13.42586905 70885

Period: 123.24 minutes
Inclination: 64.91
Apogee: 3560 km
Perigee: 91 km
Revolution Number: 7091
Predicted Location: 1S, 36.4E



__________________


L

Posts: 131433
Date:
Permalink  
 

Update
The KOSMOS 2388 satellite is predicted to re-enter the Earths atmosphere on the 13th September, 2011 @ 10:18 GMT 13 hours.

KOSMOS 2388
1 27409U 02017A   11255.70306155  .99999999 -17087-4  21428-2 0  1084
2 27409 064.9009 003.3037 1847951 223.1613 301.9946 12.29209105 70809

Period: 123.24 minutes
Inclination: 64.91
Apogee: 3560 km
Perigee: 91 km
Revolution Number: 7091
Predicted Location: 1S, 36.4E



__________________


L

Posts: 131433
Date:
Permalink  
 

The KOSMOS 2388 early warning (Oko) satellite that was launched on the 1st April, 2002, from the Plesetsk launch facility is predicted to re-enter the Earths atmosphere on the 12th September, 2011 @ 22:36 GMT 24 hours.

KOSMOS 2388
1 27409U 02017A   11254.42645212  .90772453 -14588-4  19605-2 0   937
2 27409 064.9822 005.4829 2898470 222.7863 265.6285 10.00456553 70663

Period: 177.62 minutes
Inclination: 64.99
Apogee: 8085 km
Perigee: 93 km
Revolution Number: 7084
Predicted Location: 51.1S, 248.4E

See more



__________________
Page 1 of 1  sorted by
Quick Reply

Please log in to post quick replies.



Create your own FREE Forum
Report Abuse
Powered by ActiveBoard